Regional Weather Roundup
Issued by NWS

Home | Current Version | Previous Version | Graphics & Text | Print | Product List | Glossary On
Versions: 1 2 3 4 5 6 7 8 9 10 11 12 13 14 15 16 17 18 19 20 21 22 23 24 25 26 27 28 29 30 31 32 33 34 35 36 37 38 39 40 41 42 43 44 45 46 47 48 49 50
000
ASUS44 KMEG 270110
RWRTN
TENNESSEE HOURLY STATE WEATHER ROUNDUP
NATIONAL WEATHER SERVICE MEMPHIS TN
700 PM CST FRI DEC 26 2014

TNZ002-004-019-021-049-052-054-088>092-270200-
WEST TENNESSEE

CITY           SKY/WX    TMP DP  RH WIND       PRES   REMARKS
MEMPHIS INTL   MOCLDY    50  41  71 S13       30.15R
NWS MEMPHIS      N/A     49 N/A N/A MISG        N/A
JACKSON        PTCLDY    48  38  68 S6        30.16R
DYERSBURG      PTCLDY    48  30  49 SE8       30.15F
UNION CITY     CLEAR     43  37  81 SE6       30.15R
PARIS          CLEAR     45  36  70 S8        30.16R
HUNTINGDON     PTCLDY    46  37  70 S10       30.17R
LEXINGTON      CLEAR     46  37  71 SE7       30.16S
SAVANNAH       CLEAR     46  39  76 SE8       30.19S
$$

TNZ008-025-027-028-033-062-065-066-270200-
NORTH MIDDLE TENNESSEE

CITY           SKY/WX    TMP DP  RH WIND       PRES   REMARKS
NASHVILLE      MOCLDY    46  38  73 SE5       30.22F
CLARKSVILLE    CLEAR     48  37  65 SE16G22   30.17F
SMYRNA         MOCLDY    46  39  76 CALM      30.24F
COOKEVILLE     CLEAR     45  37  76 S5        30.24R
CROSSVILLE     MOCLDY    43  32  65 W6        30.24S
$$

TNZ061-075-076-078-094-096-097-270200-
SOUTH MIDDLE TENNESSEE

CITY           SKY/WX    TMP DP  RH WIND       PRES   REMARKS
FAYETTEVILLE   PTCLDY    45  36  70 MISG      30.24S
TULLAHOMA      PTCLDY    43  37  81 SE3       30.24F
WINCHESTER     PTCLDY    43  37  81 SE5       30.26S
MCMINNVILLE    CLEAR     41  37  87 CALM      30.25R
COLUMBIA       CLEAR     43  43 100 CALM      30.19F
SHELBYVILLE    PTCLDY    45  41  87 SE3       30.25S
$$

TNZ017-018-042-046-047-270200-
NORTHEAST TENNESSEE

CITY           SKY/WX    TMP DP  RH WIND       PRES   REMARKS
TRI CITIES     MOCLDY    40  31  70 N3        30.28F
ELIZABETHTON   CLEAR     36  27  69 E7        30.29F WCI  30
$$

TNZ012-013-036-069-073-074-270200-
CENTRAL EAST TENNESSEE

CITY           SKY/WX    TMP DP  RH WIND       PRES   REMARKS
KNOXVILLE      MOCLDY    44  33  65 CALM      30.27S
OAK RIDGE      CLOUDY    42  37  82 CALM      30.28F
GATLINBURG     CLEAR     37  34  87 CALM      30.27R
MORRISTOWN     CLEAR     41  34  75 E5        30.27S
$$

TNZ083-085-099-270200-
SOUTHEAST TENNESSEE

CITY           SKY/WX    TMP DP  RH WIND       PRES   REMARKS
CHATTANOOGA    MOCLDY    45  38  76 E7        30.27F
$$

SKY/WX REPORTED AS FAIR MEANS FEW OR NO CLOUDS BELOW
12 THOUSAND FEET.



USA.gov is the U.S. government's official web portal to all federal, state and local government web resources and services.